Location: Bonningues
(50.7927°N, 2.0150°E)
Time: 17:14:05
(UTC+00:00)

Cosmos 1725 Rocket - Pass Details

Date: 08 August 2020
Orbit: 961 x 991 km, 82.9° (Epoch: 24 September)

Event Time Altitude Azimuth Distance (km) Brightness Sun altitude
Exits shadow 22:27:17 36° 146° (SE) 1,504 4.5 -20.5°
Maximum altitude 22:29:32 54° 92° (E) 1,194 4.3 -20.7°
Drops below altitude 10° 22:35:41 10° 17° (NNE) 2,766 7.1 -21.0°
Sets 22:38:16 0° 13° (NNE) 3,720 8.0 -21.2°
